[[{"header":{"parameterUnit":"m.s-1","parameterCategory":1,"la1":30.2991,"la2":30.254,"lo1":-89.0895,"lo2":-89.0444,"dy":0.0017,"dx":0.0017,"nx":28,"ny":28,"refTime":"2026-02-08T09:00:00:Z","depth":0,"parameterNumber":2,"parameterNumberName":"U-component_of_WINDS"},"data":[0,0,0,0,0,0,0,0,0,0,0,0,0,0,0,0,0,0,0,0,0,0,0,0,0,0,0,0,0,0,0,0,0,0,0,0,0,0,0,0,0,0,0,0,0,0,0,0,0,0,0,0,0,0,0,0,0,0,1.9574,1.9574,0,1.963,1.9631,1.9631,1.9652,1.9652,1.9652,1.9652,1.9712,1.9713,1.9715,0,0,0,0,0,0,0,0,0,0,0,0,0,1.9488,1.9489,1.9574,1.9574,1.9575,1.963,1.9631,1.9632,1.9652,1.9652,1.9652,1.9651,1.9711,1.9713,1.9715,0,0,0,0,0,0,0,0,0,0,0,0,0,1.9533,1.949,1.9574,1.9592,1.9594,1.963,1.9631,1.9632,1.9652,1.9652,1.9652,1.9651,1.971,1.9713,1.9715,1.9738,0,0,1.9724,1.9725,0,0,0,0,0,0,0,0,1.953,1.9536,1.9589,1.9591,1.9593,1.9634,1.9622,1.9667,1.9652,1.963,1.9652,1.9651,1.9686,1.9691,1.9702,1.9741,1.9743,1.9724,1.9726,1.9727,1.9727,0,0,0,0,0,0,0,1.9527,1.9534,1.9596,1.9589,1.9592,1.9599,1.9605,1.9631,1.9659,1.9632,1.9634,1.964,1.9687,1.9699,1.9704,1.9744,1.9724,1.9726,1.9728,1.9729,1.9807,1.9807,0,0,0,0,0,0,1.952,1.9531,1.9594,1.9598,1.956,1.96,1.9607,1.9621,1.9659,1.9664,1.964,1.9641,1.9695,1.97,1.9706,1.9736,1.9727,1.9729,1.9731,1.9806,1.9807,1.9807,0,0,0,0,0,0,1.9518,1.9526,1.9592,1.9565,1.9574,1.9602,1.9618,1.9622,1.9634,1.9665,1.967,1.9647,1.9695,1.9702,1.973,1.9738,1.973,1.9733,1.9806,1.9806,1.9807,1.9796,0,0,0,0,0,0,1.9516,1.9525,1.9533,1.9565,1.9575,1.9614,1.9618,1.9624,1.9639,1.964,1.9673,1.9678,1.9695,1.9726,1.9733,1.9742,1.9735,1.9805,1.9806,1.9807,1.9795,1.9796,1.9796,0,0,0,0,0,1.9513,1.9527,1.9533,1.954,1.9585,1.9615,1.9621,1.9639,1.9639,1.9648,1.9668,1.9677,1.9736,1.9729,1.9736,1.9747,1.9805,1.9806,1.9807,1.9795,1.9796,1.9796,0,0,0,0,0,0,1.9495,1.9532,1.9538,1.9563,1.9586,1.9618,1.9629,1.9639,1.9662,1.9663,1.9686,1.9693,1.972,1.9736,1.9727,1.9772,1.9771,1.9774,1.976,1.9761,1.9761,1.9757,1.9737,0,0,0,0,0,1.9494,1.9514,1.9545,1.9565,1.9575,1.9601,1.9614,1.9627,1.9651,1.9661,1.9683,1.9707,1.9731,1.9747,1.9771,1.9798,1.9807,1.9809,1.9809,1.981,1.9812,1.983,1.9832,1.9811,1.9811,1.9811,0,0,1.9493,1.9515,1.9526,1.9562,1.958,1.9602,1.9608,1.963,1.9647,1.9664,1.9692,1.971,1.9738,1.9767,1.978,1.9781,1.982,1.9811,1.9811,1.9813,1.9831,1.9833,1.9835,1.9812,1.9811,1.9811,0,0,1.9501,1.9519,1.9538,1.9557,1.9585,1.9602,1.9607,1.9638,1.965,1.9679,1.9693,1.9714,1.9755,1.9775,1.9791,1.9809,1.9819,1.9817,1.9819,1.9836,1.9838,1.984,1.9848,1.985,1.9819,1.9819,1.9819,0,1.9495,1.9527,1.9547,1.9568,1.9585,1.9601,1.9622,1.964,1.9675,1.9686,1.9686,1.9739,1.976,1.9794,1.9799,1.981,1.9818,1.9813,1.9836,1.9838,1.984,1.9848,1.9851,1.9818,1.9818,1.9818,1.9818,0,1.952,1.9542,1.9554,1.9588,1.9605,1.9626,1.965,1.9666,1.9678,1.9695,1.9726,1.9751,1.9781,1.979,1.9802,1.9827,1.9827,1.9831,1.9832,1.9841,1.9849,1.9852,1.9818,1.9818,1.9818,1.9818,0,0,1.9518,1.9563,1.9567,1.9583,1.9617,1.9635,1.9658,1.9687,1.9701,1.9726,1.9747,1.9782,1.9787,1.9805,1.9819,1.9834,1.9849,1.9837,1.9838,1.984,1.9882,1.9879,1.9882,1.9856,1.9857,1.9857,1.988,0,1.9531,1.9571,1.9591,1.9623,1.9645,1.9663,1.9683,1.9707,1.9724,1.9747,1.9767,1.9792,1.9795,1.9807,1.9822,1.9844,1.9858,1.9843,1.9878,1.9879,1.9871,1.9886,1.9883,1.9902,1.9883,1.9883,1.9884,0,1.9552,1.9576,1.9611,1.9644,1.9654,1.9672,1.9701,1.9722,1.975,1.9762,1.9783,1.9797,1.9824,1.9823,1.9861,1.985,1.9866,1.9879,1.988,1.9885,1.9882,1.9892,1.9909,1.9912,1.9889,1.9888,1.9888,0,1.9548,1.959,1.9616,1.963,1.9669,1.9681,1.9698,1.9726,1.9743,1.977,1.9782,1.9811,1.9827,1.9851,1.9873,1.987,1.991,1.991,1.9922,1.9922,1.993,1.993,1.9951,1.9939,1.9939,1.9939,1.9939,0,1.9561,1.9582,1.9616,1.9632,1.9657,1.968,1.9704,1.9723,1.9748,1.977,1.9787,1.9807,1.9835,1.986,1.9878,1.9908,1.9915,1.9927,1.9932,1.9926,1.9925,1.9937,1.9937,1.9939,1.9939,1.9939,1.9939,0,1.9561,1.9584,1.9615,1.965,1.9659,1.9676,1.9707,1.9725,1.9744,1.9771,1.9779,1.9809,1.9839,1.9864,1.9904,1.9916,1.9948,1.9953,1.9938,1.9941,1.9953,1.9952,1.9984,1.999,1.9972,1.9972,1.9972,0,1.9568,1.9585,1.9622,1.9638,1.9655,1.9679,1.9697,1.9721,1.974,1.9775,1.9789,1.982,1.9846,1.9894,1.992,1.9951,1.9958,1.9967,1.9963,1.9957,1.996,1.9959,1.9962,1.9967,1.9967,1.9967,1.9968,0,1.9579,1.959,1.9615,1.9645,1.9666,1.969,1.9715,1.9727,1.9756,1.9776,1.9807,1.9828,1.9869,1.99,1.9934,1.9954,1.9966,1.9969,1.9974,1.9968,1.996,1.9966,1.9941,1.9968,1.9968,1.9968,1.9968,1.9968,1.9584,1.9601,1.963,1.9658,1.9679,1.9703,1.9722,1.9744,1.977,1.9804,1.9817,1.985,1.988,1.9928,1.9947,1.9974,1.9976,1.9982,1.9984,1.9986,1.9986,1.9955,1.998,1.998,1.998,1.998,1.998,0,1.9597,1.9617,1.9642,1.9677,1.97,1.9709,1.9738,1.9757,1.9785,1.9812,1.9838,1.9875,1.9906,1.9936,1.9969,1.9985,1.9992,1.9993,1.9993,1.9998,1.9982,1.9975,1.9987,1.9987,1.9987,1.9987,1.9987,1.9987,1.9606,1.9635,1.965,1.9691,1.9712,1.9743,1.9759,1.9782,1.9804,1.9844,1.987,1.9889,1.9919,1.9955,1.9985,1.9993,2.0005,2.0005,2.0015,2.0,1.9998,1.9998,1.9991,2.0007,2.0007,2.0029,2.0029,2.003]},{"header":{"parameterUnit":"m.s-1","parameterCategory":1,"la1":30.2991,"la2":30.254,"lo1":-89.0895,"lo2":-89.0444,"dy":0.0017,"dx":0.0017,"nx":28,"ny":28,"refTime":"2026-02-08T09:00:00:Z","depth":0,"parameterNumber":3,"parameterNumberName":"V-component_of_WINDS"},"data":[0,0,0,0,0,0,0,0,0,0,0,0,0,0,0,0,0,0,0,0,0,0,0,0,0,0,0,0,0,0,0,0,0,0,0,0,0,0,0,0,0,0,0,0,0,0,0,0,0,0,0,0,0,0,0,0,0,0,0.98,0.98,0,0.9793,0.9793,0.9793,0.9799,0.9799,0.9799,0.9799,0.9791,0.9791,0.9791,0,0,0,0,0,0,0,0,0,0,0,0,0,0.9817,0.9817,0.98,0.98,0.98,0.9793,0.9793,0.9793,0.9799,0.9799,0.9799,0.9799,0.9792,0.9791,0.9791,0,0,0,0,0,0,0,0,0,0,0,0,0,0.981,0.9817,0.98,0.9802,0.9802,0.9793,0.9793,0.9793,0.9799,0.9799,0.9799,0.98,0.9792,0.9791,0.979,0.9779,0,0,0.9788,0.9788,0,0,0,0,0,0,0,0,0.981,0.9809,0.9802,0.9802,0.9802,0.9797,0.9796,0.9788,0.9798,0.98,0.9799,0.98,0.9793,0.9792,0.979,0.9779,0.9778,0.9788,0.9788,0.9788,0.9787,0,0,0,0,0,0,0,0.9811,0.981,0.9797,0.9802,0.9802,0.9803,0.9802,0.9795,0.9794,0.98,0.98,0.9799,0.9793,0.9791,0.979,0.9778,0.9788,0.9788,0.9787,0.9787,0.9755,0.9755,0,0,0,0,0,0,0.9811,0.981,0.9798,0.9797,0.9807,0.9802,0.9801,0.9798,0.9795,0.9794,0.9799,0.98,0.9792,0.9791,0.979,0.9775,0.9788,0.9787,0.9787,0.9756,0.9755,0.9755,0,0,0,0,0,0,0.9812,0.981,0.9798,0.9804,0.9802,0.9801,0.9798,0.9798,0.9796,0.9794,0.9794,0.9797,0.9792,0.9791,0.9781,0.9775,0.9787,0.9786,0.9756,0.9756,0.9755,0.9746,0,0,0,0,0,0,0.9812,0.981,0.9806,0.9803,0.9802,0.979,0.9797,0.9798,0.9794,0.9795,0.9792,0.9791,0.9792,0.9782,0.9781,0.9774,0.9786,0.9757,0.9756,0.9755,0.9747,0.9745,0.9744,0,0,0,0,0,0.9813,0.9804,0.9806,0.9805,0.9797,0.979,0.9789,0.979,0.9794,0.979,0.9788,0.9792,0.9776,0.9781,0.9779,0.9773,0.9757,0.9756,0.9755,0.9748,0.9746,0.9744,0,0,0,0,0,0,0.9806,0.9804,0.9806,0.9797,0.9793,0.9791,0.9785,0.9788,0.9783,0.9784,0.9785,0.9784,0.9774,0.9773,0.9779,0.9761,0.9767,0.9766,0.9762,0.976,0.9758,0.9759,0.9785,0,0,0,0,0,0.9804,0.9799,0.9797,0.9788,0.9787,0.9786,0.9783,0.9784,0.9781,0.9779,0.9777,0.9774,0.9768,0.9764,0.9758,0.9747,0.9745,0.9741,0.9739,0.9738,0.9737,0.9729,0.9727,0.9751,0.9751,0.9751,0,0,0.9799,0.9797,0.9793,0.9787,0.9785,0.9778,0.9785,0.9779,0.9774,0.9778,0.9769,0.9767,0.9763,0.9752,0.9748,0.9751,0.973,0.9737,0.9736,0.9735,0.9728,0.9726,0.9724,0.9751,0.9751,0.9751,0,0,0.9786,0.9785,0.9777,0.9774,0.977,0.977,0.9768,0.9765,0.9764,0.9755,0.9758,0.9751,0.9742,0.9738,0.9735,0.972,0.9722,0.9718,0.9709,0.9702,0.97,0.9698,0.9692,0.969,0.9716,0.9716,0.9716,0,0.978,0.9772,0.9773,0.9766,0.9762,0.9766,0.9758,0.9755,0.9749,0.9747,0.975,0.9737,0.9735,0.9722,0.9718,0.9716,0.9713,0.9718,0.97,0.9698,0.9697,0.9691,0.9688,0.9716,0.9716,0.9716,0.9716,0,0.9764,0.9758,0.9752,0.9746,0.9742,0.9735,0.9734,0.973,0.9731,0.973,0.9719,0.9716,0.971,0.9707,0.9708,0.9694,0.9696,0.97,0.9707,0.9694,0.9688,0.9686,0.9715,0.9715,0.9715,0.9716,0,0,0.9748,0.9742,0.974,0.9737,0.9732,0.9727,0.9719,0.9713,0.9709,0.9704,0.9697,0.9688,0.9691,0.9687,0.9688,0.9681,0.9668,0.9686,0.9685,0.9682,0.9651,0.9648,0.9646,0.9669,0.9669,0.9669,0.9652,0,0.9734,0.9721,0.9721,0.9708,0.9702,0.9705,0.9697,0.9693,0.9692,0.9686,0.9684,0.9677,0.9682,0.9679,0.9673,0.9671,0.9662,0.9672,0.9662,0.9662,0.9663,0.9643,0.964,0.9624,0.9649,0.9649,0.9649,0,0.9717,0.9712,0.9699,0.9694,0.9691,0.9685,0.9678,0.9672,0.9667,0.9667,0.9662,0.9663,0.9654,0.9661,0.9648,0.9655,0.965,0.9648,0.9648,0.9647,0.9654,0.9641,0.9619,0.9616,0.9645,0.9646,0.9646,0,0.9706,0.9696,0.9686,0.9683,0.9678,0.9673,0.967,0.9666,0.9661,0.9655,0.9652,0.9645,0.9641,0.9635,0.9634,0.9639,0.9621,0.9628,0.9619,0.9619,0.9615,0.9615,0.9592,0.9613,0.9613,0.9613,0.9613,0,0.9691,0.9682,0.968,0.9674,0.9664,0.9664,0.9654,0.9652,0.9648,0.9641,0.9642,0.9636,0.9635,0.9627,0.9626,0.9615,0.9613,0.9612,0.9612,0.9611,0.9612,0.9608,0.9609,0.9612,0.9613,0.9613,0.9613,0,0.9676,0.9675,0.9664,0.966,0.9658,0.9651,0.9647,0.964,0.9639,0.9629,0.9627,0.9624,0.9616,0.9614,0.9604,0.9603,0.9589,0.959,0.9591,0.9591,0.9582,0.9583,0.9556,0.9552,0.9576,0.9576,0.9576,0,0.9667,0.966,0.9654,0.965,0.9647,0.964,0.9635,0.9634,0.9629,0.9622,0.9616,0.9608,0.9601,0.9587,0.9584,0.9575,0.9576,0.9567,0.9575,0.9574,0.9575,0.9575,0.9574,0.9565,0.9565,0.9565,0.9565,0,0.9649,0.9648,0.9642,0.9635,0.9629,0.9623,0.9618,0.9614,0.9612,0.9606,0.9598,0.9592,0.9581,0.9573,0.9564,0.9561,0.9562,0.9562,0.956,0.9559,0.956,0.9559,0.9586,0.9563,0.9563,0.9563,0.9563,0.9564,0.9636,0.963,0.9625,0.9617,0.9613,0.9607,0.9601,0.9598,0.9591,0.9582,0.9582,0.9572,0.9566,0.9554,0.955,0.9542,0.9545,0.9541,0.954,0.9539,0.9538,0.9561,0.954,0.9541,0.9541,0.9541,0.9541,0,0.9618,0.9615,0.9608,0.96,0.9593,0.9595,0.9589,0.9583,0.9575,0.9569,0.9562,0.9551,0.9542,0.9537,0.9528,0.9522,0.9523,0.952,0.952,0.9519,0.9537,0.9539,0.952,0.952,0.952,0.952,0.952,0.952,0.9608,0.9597,0.9596,0.9582,0.9579,0.9569,0.9565,0.956,0.9555,0.9543,0.9536,0.9533,0.9527,0.9517,0.9509,0.9508,0.9504,0.9501,0.95,0.9516,0.9518,0.952,0.9523,0.95,0.95,0.9483,0.9483,0.9483]}]]